Time,TemperatureF,DewpointF,PressureIn,WindDirection,WindDirectionDegrees,WindSpeedMPH,WindSpeedGustMPH,Humidity,HourlyPrecipIn,Conditions,Clouds,dailyrainin,SolarRadiationWatts/m^2,SoftwareType,DateUTC
2013-08-22 00:01:00,73.0,66.5,30.08,WSW,248,0.0,0.0,80,0.00,,OVC,0.00,0.00,VWS V14.00,2013-08-22 04:01:00,
2013-08-22 00:06:00,73.0,66.5,30.08,SW,225,0.0,0.0,80,0.00,,OVC,0.00,0.00,VWS V14.00,2013-08-22 04:06:00,
2013-08-22 00:11:00,73.0,66.5,30.07,SW,225,0.0,0.0,80,0.00,,OVC,0.00,0.00,VWS V14.00,2013-08-22 04:11:00,
2013-08-22 00:16:00,72.8,66.3,30.07,WSW,248,0.0,0.0,80,0.00,,OVC,0.00,0.00,VWS V14.00,2013-08-22 04:16:00,
2013-08-22 00:21:00,72.6,66.1,30.07,WSW,248,0.0,0.0,80,0.00,,OVC,0.00,0.00,VWS V14.00,2013-08-22 04:21:00,
2013-08-22 00:26:00,72.6,66.1,30.07,WSW,248,0.0,0.0,80,0.00,,OVC,0.00,0.00,VWS V14.00,2013-08-22 04:26:00,
2013-08-22 00:31:00,72.6,66.1,30.07,WSW,248,0.0,0.0,80,0.00,,OVC,0.00,0.00,VWS V14.00,2013-08-22 04:31:00,
2013-08-22 00:36:00,72.5,66.0,30.07,WSW,248,0.0,0.0,80,0.00,,OVC,0.00,0.00,VWS V14.00,2013-08-22 04:36:00,
2013-08-22 00:41:00,72.5,66.0,30.06,West,270,0.0,0.0,80,0.00,,OVC,0.00,0.00,VWS V14.00,2013-08-22 04:41:00,
2013-08-22 00:46:00,72.3,65.8,30.06,SW,225,1.1,1.1,80,0.00,,OVC,0.00,0.00,VWS V14.00,2013-08-22 04:46:00,
2013-08-22 00:51:00,72.3,66.2,30.06,SW,225,0.8,0.8,81,0.00,,OVC,0.00,0.00,VWS V14.00,2013-08-22 04:51:00,
2013-08-22 00:56:00,72.3,66.2,30.06,SW,225,0.0,0.0,81,0.00,,OVC,0.00,0.00,VWS V14.00,2013-08-22 04:56:00,
2013-08-22 01:01:00,72.1,65.9,30.07,SW,225,0.0,0.0,81,0.00,,OVC,0.00,0.00,VWS V14.00,2013-08-22 05:01:00,
2013-08-22 01:06:00,72.1,65.9,30.07,WSW,248,0.8,0.8,81,0.00,,OVC,0.00,0.00,VWS V14.00,2013-08-22 05:06:00,
2013-08-22 01:11:00,72.1,65.9,30.07,SW,225,0.0,0.0,81,0.00,,OVC,0.00,0.00,VWS V14.00,2013-08-22 05:11:00,
2013-08-22 01:16:00,72.1,65.9,30.07,WSW,248,0.0,0.0,81,0.00,,OVC,0.00,0.00,VWS V14.00,2013-08-22 05:16:00,
2013-08-22 01:21:00,72.1,65.9,30.07,SW,225,0.0,0.0,81,0.00,,OVC,0.00,0.00,VWS V14.00,2013-08-22 05:21:00,
2013-08-22 01:26:00,72.1,65.9,30.07,SW,225,0.0,0.0,81,0.00,,OVC,0.00,0.00,VWS V14.00,2013-08-22 05:26:00,
2013-08-22 01:31:00,72.1,65.9,30.07,WSW,248,0.0,0.0,81,0.00,,OVC,0.00,0.00,VWS V14.00,2013-08-22 05:31:00,
2013-08-22 01:36:00,71.9,65.8,30.07,WSW,248,0.0,0.0,81,0.00,,OVC,0.00,0.00,VWS V14.00,2013-08-22 05:36:00,
2013-08-22 01:41:00,71.9,66.1,30.07,SW,225,0.0,0.0,82,0.00,,OVC,0.00,0.00,VWS V14.00,2013-08-22 05:41:00,
2013-08-22 01:46:00,71.9,66.1,30.07,WSW,248,0.0,0.0,82,0.00,,OVC,0.00,0.00,VWS V14.00,2013-08-22 05:46:00,
2013-08-22 01:51:00,71.9,66.1,30.08,WSW,248,0.0,0.0,82,0.00,,OVC,0.00,0.00,VWS V14.00,2013-08-22 05:51:00,
2013-08-22 01:56:00,71.9,66.1,30.08,SSW,202,0.0,0.0,82,0.00,,OVC,0.00,0.00,VWS V14.00,2013-08-22 05:56:00,
2013-08-22 02:01:00,71.9,66.1,30.08,SW,225,0.0,0.0,82,0.00,,OVC,0.00,0.00,VWS V14.00,2013-08-22 06:01:00,
2013-08-22 02:06:00,71.7,66.3,30.08,WSW,248,0.0,0.0,83,0.00,,OVC,0.00,0.00,VWS V14.00,2013-08-22 06:06:00,
2013-08-22 02:11:00,71.7,66.3,30.08,SW,225,0.0,0.0,83,0.00,,OVC,0.00,0.00,VWS V14.00,2013-08-22 06:11:00,
2013-08-22 02:16:00,71.9,66.5,30.08,WSW,248,0.0,0.0,83,0.00,,OVC,0.00,0.00,VWS V14.00,2013-08-22 06:16:00,
2013-08-22 02:21:00,71.7,66.3,30.08,WSW,248,0.0,0.0,83,0.00,,OVC,0.00,0.00,VWS V14.00,2013-08-22 06:21:00,
2013-08-22 02:26:00,71.7,66.3,30.08,West,270,2.2,2.2,83,0.00,,OVC,0.00,0.00,VWS V14.00,2013-08-22 06:26:00,
2013-08-22 02:31:00,71.7,66.3,30.08,SW,225,3.3,3.3,83,0.00,,OVC,0.00,0.00,VWS V14.00,2013-08-22 06:31:00,
2013-08-22 02:36:00,71.7,66.3,30.08,WSW,248,0.0,0.0,83,0.00,,OVC,0.00,0.00,VWS V14.00,2013-08-22 06:36:00,
2013-08-22 02:41:00,71.7,66.3,30.08,WSW,248,0.0,0.0,83,0.00,,OVC,0.00,0.00,VWS V14.00,2013-08-22 06:41:00,
2013-08-22 02:46:00,71.7,66.3,30.08,WSW,248,0.0,0.0,83,0.00,,OVC,0.00,0.00,VWS V14.00,2013-08-22 06:46:00,
2013-08-22 02:51:00,71.7,66.3,30.08,WSW,248,0.0,0.0,83,0.00,,OVC,0.00,0.00,VWS V14.00,2013-08-22 06:51:00,
2013-08-22 02:56:00,71.9,66.8,30.07,WSW,248,0.0,0.0,84,0.00,,OVC,0.00,0.00,VWS V14.00,2013-08-22 06:56:00,
2013-08-22 03:01:00,71.9,66.8,30.07,SW,225,0.0,0.0,84,0.00,,OVC,0.00,0.00,VWS V14.00,2013-08-22 07:01:00,
2013-08-22 03:05:00,71.9,66.8,30.07,SW,225,0.0,0.0,84,0.00,,OVC,0.00,0.00,VWS V14.00,2013-08-22 07:05:00,
2013-08-22 03:10:00,71.9,66.8,30.07,WSW,248,0.0,0.0,84,0.00,,OVC,0.00,0.00,VWS V14.00,2013-08-22 07:10:00,
2013-08-22 03:15:00,71.9,66.8,30.07,West,270,0.0,0.0,84,0.00,,OVC,0.00,0.00,VWS V14.00,2013-08-22 07:15:00,
2013-08-22 03:20:00,71.9,66.8,30.07,WSW,248,0.6,0.6,84,0.00,,OVC,0.00,0.00,VWS V14.00,2013-08-22 07:20:00,
2013-08-22 03:25:00,71.9,66.8,30.07,WSW,248,0.0,0.0,84,0.00,,OVC,0.00,0.00,VWS V14.00,2013-08-22 07:25:00,
2013-08-22 03:30:00,71.9,66.8,30.06,SSW,202,0.0,0.0,84,0.00,,OVC,0.00,0.00,VWS V14.00,2013-08-22 07:30:00,
2013-08-22 03:35:00,71.9,66.8,30.06,SSW,202,0.0,0.0,84,0.00,,OVC,0.00,0.00,VWS V14.00,2013-08-22 07:35:00,
2013-08-22 03:40:00,71.9,66.8,30.06,SW,225,0.0,0.0,84,0.00,,OVC,0.00,0.00,VWS V14.00,2013-08-22 07:40:00,
2013-08-22 03:45:00,72.1,67.0,30.06,WSW,248,0.0,0.0,84,0.00,,OVC,0.00,0.00,VWS V14.00,2013-08-22 07:45:00,
2013-08-22 03:50:00,71.9,67.2,30.06,WSW,248,0.0,0.0,85,0.00,,OVC,0.00,0.00,VWS V14.00,2013-08-22 07:50:00,
2013-08-22 03:55:00,71.9,67.2,30.05,SW,225,0.0,0.0,85,0.00,,OVC,0.00,0.00,VWS V14.00,2013-08-22 07:55:00,
2013-08-22 04:00:00,71.9,67.2,30.05,West,270,0.0,0.0,85,0.00,,OVC,0.00,0.00,VWS V14.00,2013-08-22 08:00:00,
2013-08-22 04:05:00,71.9,67.2,30.05,West,270,0.0,0.0,85,0.00,,OVC,0.00,0.00,VWS V14.00,2013-08-22 08:05:00,
2013-08-22 04:10:00,71.9,67.2,30.05,SSW,202,0.0,0.0,85,0.00,,OVC,0.00,0.00,VWS V14.00,2013-08-22 08:10:00,
2013-08-22 04:15:00,71.9,67.2,30.05,SSW,202,0.0,0.0,85,0.00,,OVC,0.00,0.00,VWS V14.00,2013-08-22 08:15:00,
2013-08-22 04:20:00,71.9,67.2,30.05,WSW,248,0.0,0.0,85,0.00,,OVC,0.00,0.00,VWS V14.00,2013-08-22 08:20:00,
2013-08-22 04:25:00,71.9,67.2,30.05,WSW,248,0.0,0.0,85,0.00,,OVC,0.00,0.00,VWS V14.00,2013-08-22 08:25:00,
2013-08-22 04:30:00,71.9,67.2,30.05,WSW,248,3.5,3.5,85,0.00,,OVC,0.00,0.00,VWS V14.00,2013-08-22 08:30:00,
2013-08-22 04:35:00,72.1,67.3,30.05,SW,225,0.0,0.0,85,0.00,,OVC,0.00,0.00,VWS V14.00,2013-08-22 08:35:00,
2013-08-22 04:40:00,72.1,67.3,30.05,SW,225,0.0,0.0,85,0.00,,OVC,0.00,0.00,VWS V14.00,2013-08-22 08:40:00,
2013-08-22 04:45:00,72.1,67.3,30.05,SW,225,0.0,0.0,85,0.00,,OVC,0.00,0.00,VWS V14.00,2013-08-22 08:45:00,
2013-08-22 04:50:00,72.1,67.3,30.05,SSW,202,2.4,2.4,85,0.00,,OVC,0.00,0.00,VWS V14.00,2013-08-22 08:50:00,
2013-08-22 04:55:00,72.1,67.7,30.05,WSW,248,0.0,0.0,86,0.00,,OVC,0.00,0.00,VWS V14.00,2013-08-22 08:55:00,
2013-08-22 05:00:00,72.1,67.7,30.05,SW,225,0.0,0.0,86,0.00,,OVC,0.00,0.00,VWS V14.00,2013-08-22 09:00:00,
2013-08-22 05:05:00,72.1,67.7,30.05,SW,225,0.0,0.0,86,0.00,,OVC,0.00,0.00,VWS V14.00,2013-08-22 09:05:00,
2013-08-22 05:10:00,72.1,67.7,30.05,WSW,248,0.0,0.0,86,0.00,,OVC,0.00,0.00,VWS V14.00,2013-08-22 09:10:00,
2013-08-22 05:15:00,72.1,67.7,30.05,WSW,248,0.0,0.0,86,0.00,,OVC,0.00,0.00,VWS V14.00,2013-08-22 09:15:00,
2013-08-22 05:20:00,72.1,67.7,30.05,WSW,248,0.0,0.0,86,0.00,,OVC,0.00,0.00,VWS V14.00,2013-08-22 09:20:00,
2013-08-22 05:25:00,71.9,67.5,30.04,WSW,248,0.0,0.0,86,0.00,,OVC,0.00,0.00,VWS V14.00,2013-08-22 09:25:00,
2013-08-22 05:30:00,71.9,67.5,30.04,WSW,248,0.0,0.0,86,0.00,,OVC,0.00,0.00,VWS V14.00,2013-08-22 09:30:00,
2013-08-22 05:35:00,71.9,67.5,30.04,WSW,248,0.0,0.0,86,0.00,,OVC,0.00,0.00,VWS V14.00,2013-08-22 09:35:00,
2013-08-22 05:40:00,71.7,67.3,30.04,WSW,248,0.0,0.0,86,0.00,,OVC,0.00,0.00,VWS V14.00,2013-08-22 09:40:00,
2013-08-22 05:45:00,71.7,67.3,30.04,WSW,248,0.0,0.0,86,0.00,,OVC,0.00,0.00,VWS V14.00,2013-08-22 09:45:00,
2013-08-22 05:50:00,71.7,67.3,30.04,WSW,248,0.0,0.0,86,0.00,,OVC,0.00,0.00,VWS V14.00,2013-08-22 09:50:00,
2013-08-22 05:55:00,71.7,67.3,30.04,SW,225,2.0,2.0,86,0.00,,OVC,0.00,0.00,VWS V14.00,2013-08-22 09:55:00,
2013-08-22 06:00:00,71.6,67.2,30.03,SW,225,0.2,0.2,86,0.00,,OVC,0.00,0.00,VWS V14.00,2013-08-22 10:00:00,
2013-08-22 06:05:00,71.4,67.0,30.03,WSW,248,0.0,0.0,86,0.00,,OVC,0.00,0.00,VWS V14.00,2013-08-22 10:05:00,
2013-08-22 06:10:00,71.4,67.0,30.03,WSW,248,0.0,0.0,86,0.00,,OVC,0.00,0.00,VWS V14.00,2013-08-22 10:10:00,
2013-08-22 06:15:00,71.4,67.0,30.02,WSW,248,0.0,0.0,86,0.00,,OVC,0.00,0.00,VWS V14.00,2013-08-22 10:15:00,
2013-08-22 06:20:00,71.4,67.0,30.03,WSW,248,0.6,0.6,86,0.00,,OVC,0.00,0.00,VWS V14.00,2013-08-22 10:20:00,
2013-08-22 06:25:00,71.2,66.8,30.03,WSW,248,0.0,0.0,86,0.00,,OVC,0.00,0.00,VWS V14.00,2013-08-22 10:25:00,
2013-08-22 06:30:00,71.4,67.0,30.03,WSW,248,0.0,0.0,86,0.00,,OVC,0.00,0.00,VWS V14.00,2013-08-22 10:30:00,
2013-08-22 06:35:00,71.2,66.8,30.03,WSW,248,0.0,0.0,86,0.00,,OVC,0.00,0.00,VWS V14.00,2013-08-22 10:35:00,
2013-08-22 06:40:00,71.4,67.0,30.04,WSW,248,0.0,0.0,86,0.00,,OVC,0.00,0.00,VWS V14.00,2013-08-22 10:40:00,
2013-08-22 06:45:00,71.4,67.0,30.04,WSW,248,0.0,0.0,86,0.00,,OVC,0.00,0.00,VWS V14.00,2013-08-22 10:45:00,
2013-08-22 08:27:00,76.1,70.9,30.04,SSW,202,0.0,0.2,84,0.00,,OVC,0.00,0.00,VWS V14.00,2013-08-22 12:27:00,
2013-08-22 08:32:00,75.9,70.4,30.04,SSW,202,2.2,2.2,83,0.00,,OVC,0.00,0.00,VWS V14.00,2013-08-22 12:32:00,
2013-08-22 08:37:00,75.7,70.2,30.04,WSW,248,0.0,0.0,83,0.00,,OVC,0.00,0.00,VWS V14.00,2013-08-22 12:37:00,
2013-08-22 08:42:00,75.7,70.5,30.04,SW,225,0.0,0.0,84,0.00,,OVC,0.00,0.00,VWS V14.00,2013-08-22 12:42:00,
2013-08-22 08:47:00,75.7,70.5,30.04,West,270,0.0,0.0,84,0.00,,OVC,0.00,0.00,VWS V14.00,2013-08-22 12:47:00,
2013-08-22 08:52:00,75.9,70.7,30.04,West,270,0.0,0.0,84,0.00,,OVC,0.00,0.00,VWS V14.00,2013-08-22 12:52:00,
2013-08-22 08:57:00,76.1,70.9,30.04,WSW,248,1.1,1.1,84,0.00,,OVC,0.00,0.00,VWS V14.00,2013-08-22 12:57:00,
2013-08-22 09:00:00,76.1,70.9,30.04,West,270,1.3,1.3,84,0.00,,OVC,0.00,0.00,VWS V14.00,2013-08-22 13:00:00,
2013-08-22 09:05:00,76.2,70.7,30.04,WSW,248,0.0,0.0,83,0.00,,OVC,0.00,0.00,VWS V14.00,2013-08-22 13:05:00,
2013-08-22 09:10:00,76.1,70.6,30.04,SW,225,3.3,3.3,83,0.00,,OVC,0.00,0.00,VWS V14.00,2013-08-22 13:10:00,
2013-08-22 09:15:00,75.9,70.7,30.04,WSW,248,0.0,0.0,84,0.00,,OVC,0.00,0.00,VWS V14.00,2013-08-22 13:15:00,
2013-08-22 09:20:00,76.2,71.0,30.03,SW,225,0.8,0.8,84,0.00,,OVC,0.00,0.00,VWS V14.00,2013-08-22 13:20:00,
2013-08-22 09:25:00,76.6,71.1,30.03,SSW,202,3.1,3.1,83,0.00,,OVC,0.00,0.00,VWS V14.00,2013-08-22 13:25:00,
2013-08-22 09:30:00,77.1,71.5,30.03,SW,225,0.0,0.0,83,0.00,,OVC,0.00,0.00,VWS V14.00,2013-08-22 13:30:00,
2013-08-22 09:35:00,77.9,72.3,30.03,West,270,0.0,0.0,83,0.00,,OVC,0.00,0.00,VWS V14.00,2013-08-22 13:35:00,
2013-08-22 09:40:00,78.4,72.4,30.02,WSW,248,0.0,0.0,82,0.00,,OVC,0.00,0.00,VWS V14.00,2013-08-22 13:40:00,
2013-08-22 09:45:00,79.1,73.1,30.02,WSW,248,8.2,8.2,82,0.00,,OVC,0.00,0.00,VWS V14.00,2013-08-22 13:45:00,
2013-08-22 09:50:00,79.8,73.1,30.02,SW,225,0.0,0.0,80,0.00,,OVC,0.00,0.00,VWS V14.00,2013-08-22 13:50:00,
2013-08-22 09:55:00,80.4,73.7,30.02,West,270,2.0,2.0,80,0.00,,OVC,0.00,0.00,VWS V14.00,2013-08-22 13:55:00,
2013-08-22 10:00:00,81.1,73.6,30.02,SW,225,3.3,3.3,78,0.00,,OVC,0.00,0.00,VWS V14.00,2013-08-22 14:00:00,
2013-08-22 10:05:00,81.6,74.1,30.02,West,270,0.0,0.0,78,0.00,,OVC,0.00,0.00,VWS V14.00,2013-08-22 14:05:00,
2013-08-22 10:10:00,81.6,73.3,30.02,SW,225,4.4,4.4,76,0.00,,OVC,0.00,0.00,VWS V14.00,2013-08-22 14:10:00,
2013-08-22 10:15:00,81.8,73.5,30.02,West,270,1.3,1.3,76,0.00,,OVC,0.00,0.00,VWS V14.00,2013-08-22 14:15:00,
2013-08-22 10:20:00,82.2,73.9,30.01,WNW,292,0.0,0.0,76,0.00,,OVC,0.00,0.00,VWS V14.00,2013-08-22 14:20:00,
2013-08-22 10:25:00,82.5,73.8,30.02,SW,225,0.0,0.0,75,0.00,,OVC,0.00,0.00,VWS V14.00,2013-08-22 14:25:00,
2013-08-22 10:30:00,83.1,74.0,30.02,WSW,248,2.9,2.9,74,0.00,,OVC,0.00,0.00,VWS V14.00,2013-08-22 14:30:00,
2013-08-22 10:35:00,83.4,73.8,30.02,WSW,248,1.7,1.7,73,0.00,,OVC,0.00,0.00,VWS V14.00,2013-08-22 14:35:00,
2013-08-22 10:40:00,84.0,74.0,30.02,SSW,202,2.0,2.0,72,0.00,,OVC,0.00,0.00,VWS V14.00,2013-08-22 14:40:00,
2013-08-22 10:45:00,84.2,73.8,30.02,WSW,248,0.0,0.0,71,0.00,,OVC,0.00,0.00,VWS V14.00,2013-08-22 14:45:00,
2013-08-22 10:50:00,84.3,73.5,30.02,WSW,248,4.6,4.6,70,0.00,,OVC,0.00,0.00,VWS V14.00,2013-08-22 14:50:00,
2013-08-22 10:55:00,84.3,73.0,30.02,West,270,0.0,0.0,69,0.00,,OVC,0.00,0.00,VWS V14.00,2013-08-22 14:55:00,
2013-08-22 11:00:00,84.2,72.9,30.02,WSW,248,0.0,0.0,69,0.00,,OVC,0.00,0.00,VWS V14.00,2013-08-22 15:00:00,
2013-08-22 11:05:00,84.5,73.2,30.02,West,270,0.0,0.0,69,0.00,,OVC,0.00,0.00,VWS V14.00,2013-08-22 15:05:00,
2013-08-22 11:10:00,85.2,73.9,30.02,SW,225,0.0,0.0,69,0.00,,OVC,0.00,0.00,VWS V14.00,2013-08-22 15:10:00,
2013-08-22 11:15:00,85.6,73.8,30.02,SSW,202,4.4,4.4,68,0.00,,OVC,0.00,0.00,VWS V14.00,2013-08-22 15:15:00,
2013-08-22 11:20:00,85.6,73.8,30.02,WNW,292,3.1,3.1,68,0.00,,OVC,0.00,0.00,VWS V14.00,2013-08-22 15:20:00,
2013-08-22 11:25:00,85.1,72.9,30.02,NW,315,0.0,0.0,67,0.00,,OVC,0.00,0.00,VWS V14.00,2013-08-22 15:25:00,
2013-08-22 11:30:00,84.9,73.2,30.02,NW,315,0.0,0.0,68,0.00,,OVC,0.00,0.00,VWS V14.00,2013-08-22 15:30:00,
2013-08-22 11:35:00,84.7,73.0,30.02,WSW,248,4.0,4.0,68,0.00,,OVC,0.00,0.00,VWS V14.00,2013-08-22 15:35:00,
2013-08-22 11:40:00,84.9,73.2,30.02,WSW,248,0.0,0.0,68,0.00,,OVC,0.00,0.00,VWS V14.00,2013-08-22 15:40:00,
2013-08-22 11:45:00,84.9,73.2,30.02,West,270,2.0,2.0,68,0.00,,OVC,0.00,0.00,VWS V14.00,2013-08-22 15:45:00,
2013-08-22 11:50:00,84.9,72.7,30.02,SSW,202,0.0,0.0,67,0.00,,OVC,0.00,0.00,VWS V14.00,2013-08-22 15:50:00,
2013-08-22 11:55:00,85.1,73.4,30.01,South,180,7.3,7.3,68,0.00,,OVC,0.00,0.00,VWS V14.00,2013-08-22 15:55:00,
2013-08-22 12:00:00,85.6,73.4,30.02,West,270,0.0,0.0,67,0.00,,OVC,0.00,0.00,VWS V14.00,2013-08-22 16:00:00,
2013-08-22 12:05:00,86.0,73.3,30.02,WSW,248,1.3,1.3,66,0.00,,OVC,0.00,0.00,VWS V14.00,2013-08-22 16:05:00,
2013-08-22 12:10:00,86.1,73.4,30.02,SW,225,1.1,1.1,66,0.00,,OVC,0.00,0.00,VWS V14.00,2013-08-22 16:10:00,
2013-08-22 12:15:00,86.5,73.8,30.01,SSW,202,0.0,0.0,66,0.00,,OVC,0.00,0.00,VWS V14.00,2013-08-22 16:15:00,
2013-08-22 12:20:00,87.4,74.2,30.01,WSW,248,2.2,2.2,65,0.00,,OVC,0.00,0.00,VWS V14.00,2013-08-22 16:20:00,
2013-08-22 12:25:00,88.1,74.4,30.01,NW,315,0.0,0.0,64,0.00,,OVC,0.00,0.00,VWS V14.00,2013-08-22 16:25:00,
2013-08-22 12:30:00,88.5,74.3,30.00,WSW,248,0.6,0.6,63,0.00,,OVC,0.00,0.00,VWS V14.00,2013-08-22 16:30:00,
2013-08-22 12:35:00,88.3,73.6,30.00,SW,225,5.8,5.8,62,0.00,,OVC,0.00,0.00,VWS V14.00,2013-08-22 16:35:00,
2013-08-22 12:40:00,88.1,73.4,30.00,SSW,202,0.0,0.0,62,0.00,,OVC,0.00,0.00,VWS V14.00,2013-08-22 16:40:00,
2013-08-22 12:45:00,87.6,73.0,30.00,West,270,0.0,0.0,62,0.00,,OVC,0.00,0.00,VWS V14.00,2013-08-22 16:45:00,
2013-08-22 12:50:00,87.8,73.6,30.00,SW,225,0.2,0.2,63,0.00,,OVC,0.00,0.00,VWS V14.00,2013-08-22 16:50:00,
2013-08-22 12:55:00,88.5,74.3,30.00,West,270,3.5,3.5,63,0.00,,OVC,0.00,0.00,VWS V14.00,2013-08-22 16:55:00,
2013-08-22 13:00:00,89.2,74.5,29.99,SSW,202,0.0,0.0,62,0.00,,OVC,0.00,0.00,VWS V14.00,2013-08-22 17:00:00,
2013-08-22 13:05:00,89.4,74.7,29.99,West,270,0.0,0.0,62,0.00,,OVC,0.00,0.00,VWS V14.00,2013-08-22 17:05:00,
2013-08-22 13:10:00,90.1,74.8,29.99,SSW,202,2.6,2.6,61,0.00,,OVC,0.00,0.00,VWS V14.00,2013-08-22 17:10:00,
2013-08-22 13:15:00,89.4,73.7,29.99,SW,225,3.8,3.8,60,0.00,,OVC,0.00,0.00,VWS V14.00,2013-08-22 17:15:00,
2013-08-22 13:20:00,88.7,73.5,29.99,West,270,2.6,2.6,61,0.00,,OVC,0.00,0.00,VWS V14.00,2013-08-22 17:20:00,
2013-08-22 13:25:00,88.1,73.0,29.99,WSW,248,2.4,2.4,61,0.00,,OVC,0.00,0.00,VWS V14.00,2013-08-22 17:25:00,
2013-08-22 13:30:00,87.9,73.3,29.99,WSW,248,0.6,0.6,62,0.00,,OVC,0.00,0.00,VWS V14.00,2013-08-22 17:30:00,
2013-08-22 13:35:00,87.6,73.5,29.99,WSW,248,2.2,2.2,63,0.00,,OVC,0.00,0.00,VWS V14.00,2013-08-22 17:35:00,
2013-08-22 13:40:00,87.4,73.7,29.98,SW,225,0.0,0.0,64,0.00,,OVC,0.00,0.00,VWS V14.00,2013-08-22 17:40:00,
2013-08-22 13:45:00,86.7,73.1,29.98,SW,225,0.0,0.0,64,0.00,,OVC,0.00,0.00,VWS V14.00,2013-08-22 17:45:00,
2013-08-22 13:50:00,86.7,73.5,29.98,WSW,248,0.0,0.0,65,0.00,,OVC,0.00,0.00,VWS V14.00,2013-08-22 17:50:00,
2013-08-22 13:55:00,86.5,72.9,29.98,West,270,2.0,2.0,64,0.00,,OVC,0.00,0.00,VWS V14.00,2013-08-22 17:55:00,
2013-08-22 14:00:00,85.4,72.3,29.98,West,270,0.0,0.0,65,0.00,,OVC,0.00,0.00,VWS V14.00,2013-08-22 18:00:00,
2013-08-22 14:05:00,84.3,71.7,29.98,West,270,2.0,2.0,66,0.00,,OVC,0.00,0.00,VWS V14.00,2013-08-22 18:05:00,
2013-08-22 14:10:00,83.3,71.2,29.99,NNE,22,6.2,6.2,67,0.00,,OVC,0.00,0.00,VWS V14.00,2013-08-22 18:10:00,
2013-08-22 14:15:00,80.2,69.1,29.99,NW,315,0.0,0.0,69,0.00,,OVC,0.00,0.00,VWS V14.00,2013-08-22 18:15:00,
2013-08-22 14:20:00,78.6,68.8,29.99,NNW,338,1.7,1.7,72,0.02,,OVC,0.02,0.00,VWS V14.00,2013-08-22 18:20:00,
2013-08-22 14:25:00,76.8,67.9,29.99,NNW,338,0.0,0.0,74,0.02,,OVC,0.02,0.00,VWS V14.00,2013-08-22 18:25:00,
2013-08-22 14:30:00,75.9,60.6,29.98,NE,45,3.5,3.5,59,0.02,,OVC,0.02,0.00,VWS V14.00,2013-08-22 18:30:00,
2013-08-22 14:35:00,75.7,68.0,29.97,North,0,0.0,0.0,77,0.02,,OVC,0.02,0.00,VWS V14.00,2013-08-22 18:35:00,
2013-08-22 14:40:00,75.7,68.7,29.97,North,0,0.0,0.0,79,0.06,,OVC,0.06,0.00,VWS V14.00,2013-08-22 18:40:00,
2013-08-22 14:45:00,75.9,69.3,29.98,WSW,248,0.0,0.0,80,0.06,,OVC,0.06,0.00,VWS V14.00,2013-08-22 18:45:00,
2013-08-22 14:50:00,75.7,69.5,29.97,SW,225,0.0,0.0,81,0.08,,OVC,0.08,0.00,VWS V14.00,2013-08-22 18:50:00,
2013-08-22 14:55:00,75.7,69.8,29.96,SW,225,0.0,0.0,82,0.08,,OVC,0.08,0.00,VWS V14.00,2013-08-22 18:55:00,
2013-08-22 15:00:00,76.1,70.2,29.96,SW,225,0.0,0.0,82,0.08,,OVC,0.08,0.00,VWS V14.00,2013-08-22 19:00:00,
2013-08-22 15:05:00,76.8,70.9,29.95,SW,225,0.0,0.0,82,0.08,,OVC,0.08,0.00,VWS V14.00,2013-08-22 19:05:00,
2013-08-22 15:10:00,77.5,71.2,29.95,North,0,0.0,0.0,81,0.08,,OVC,0.08,0.00,VWS V14.00,2013-08-22 19:10:00,
2013-08-22 15:15:00,78.0,71.7,29.95,SW,225,0.0,0.0,81,0.08,,OVC,0.08,0.00,VWS V14.00,2013-08-22 19:15:00,
2013-08-22 15:20:00,78.0,71.3,29.95,SE,135,0.8,0.8,80,0.06,,OVC,0.08,0.00,VWS V14.00,2013-08-22 19:20:00,
2013-08-22 15:25:00,77.9,70.9,29.95,SE,135,0.0,0.0,79,0.06,,OVC,0.08,0.00,VWS V14.00,2013-08-22 19:25:00,
2013-08-22 15:30:00,78.0,71.0,29.95,North,0,0.0,2.0,79,0.06,,OVC,0.08,0.00,VWS V14.00,2013-08-22 19:30:00,
2013-08-22 15:35:00,78.4,71.3,29.94,WSW,248,0.0,0.0,79,0.06,,OVC,0.08,0.00,VWS V14.00,2013-08-22 19:35:00,
2013-08-22 15:40:00,78.6,71.6,29.94,WSW,248,0.0,0.0,79,0.04,,OVC,0.08,0.00,VWS V14.00,2013-08-22 19:40:00,
2013-08-22 15:45:00,79.1,72.0,29.93,West,270,0.8,1.1,79,0.02,,OVC,0.08,0.00,VWS V14.00,2013-08-22 19:45:00,
2013-08-22 15:50:00,79.3,71.8,29.93,WSW,248,2.6,2.6,78,0.00,,OVC,0.08,0.00,VWS V14.00,2013-08-22 19:50:00,
2013-08-22 15:55:00,79.3,71.5,29.94,WSW,248,0.0,0.0,77,0.00,,OVC,0.08,0.00,VWS V14.00,2013-08-22 19:55:00,
2013-08-22 16:00:00,79.1,70.9,29.94,WSW,248,0.0,0.0,76,0.00,,OVC,0.08,0.00,VWS V14.00,2013-08-22 20:00:00,
2013-08-22 16:05:00,79.5,71.3,29.93,WSW,248,0.0,0.0,76,0.00,,OVC,0.08,0.00,VWS V14.00,2013-08-22 20:05:00,
2013-08-22 16:10:00,79.3,70.7,29.93,SSW,202,0.0,0.0,75,0.00,,OVC,0.08,0.00,VWS V14.00,2013-08-22 20:10:00,
2013-08-22 16:15:00,78.4,69.8,29.93,South,180,0.0,0.0,75,0.00,,OVC,0.08,0.00,VWS V14.00,2013-08-22 20:15:00,
2013-08-22 16:20:00,77.3,69.2,29.93,South,180,1.1,1.1,76,0.00,,OVC,0.08,0.00,VWS V14.00,2013-08-22 20:20:00,
2013-08-22 16:25:00,76.6,68.9,29.92,South,180,0.0,0.0,77,0.00,,OVC,0.08,0.00,VWS V14.00,2013-08-22 20:25:00,
2013-08-22 16:30:00,76.2,68.5,29.92,SE,135,1.5,1.5,77,0.00,,OVC,0.08,0.00,VWS V14.00,2013-08-22 20:30:00,
2013-08-22 16:35:00,76.1,68.4,29.92,South,180,2.9,2.9,77,0.00,,OVC,0.08,0.00,VWS V14.00,2013-08-22 20:35:00,
2013-08-22 16:40:00,75.9,68.2,29.92,South,180,1.5,1.5,77,0.00,,OVC,0.08,0.00,VWS V14.00,2013-08-22 20:40:00,
2013-08-22 16:45:00,75.9,68.6,29.92,South,180,0.0,0.0,78,0.00,,OVC,0.08,0.00,VWS V14.00,2013-08-22 20:45:00,
2013-08-22 16:50:00,76.1,68.8,29.92,South,180,0.0,0.0,78,0.00,,OVC,0.08,0.00,VWS V14.00,2013-08-22 20:50:00,
2013-08-22 16:55:00,76.4,68.7,29.92,South,180,0.0,0.0,77,0.00,,OVC,0.08,0.00,VWS V14.00,2013-08-22 20:55:00,
2013-08-22 17:00:00,77.1,69.7,29.93,WSW,248,0.0,0.0,78,0.00,,OVC,0.08,0.00,VWS V14.00,2013-08-22 21:00:00,
2013-08-22 17:05:00,77.7,70.3,29.93,SW,225,0.0,0.0,78,0.00,,OVC,0.08,0.00,VWS V14.00,2013-08-22 21:05:00,
2013-08-22 17:10:00,78.4,70.6,29.93,SW,225,0.0,0.0,77,0.00,,OVC,0.08,0.00,VWS V14.00,2013-08-22 21:10:00,
2013-08-22 17:15:00,78.6,70.8,29.93,SW,225,0.0,0.0,77,0.00,,OVC,0.08,0.00,VWS V14.00,2013-08-22 21:15:00,
2013-08-22 17:20:00,78.6,70.4,29.93,SW,225,0.4,0.4,76,0.00,,OVC,0.08,0.00,VWS V14.00,2013-08-22 21:20:00,
2013-08-22 17:25:00,78.4,70.2,29.93,SW,225,0.0,0.0,76,0.00,,OVC,0.08,0.00,VWS V14.00,2013-08-22 21:25:00,
2013-08-22 17:30:00,77.7,69.9,29.93,WSW,248,0.4,0.4,77,0.00,,OVC,0.08,0.00,VWS V14.00,2013-08-22 21:30:00,
2013-08-22 17:35:00,77.5,69.7,29.92,SW,225,0.6,0.6,77,0.00,,OVC,0.08,0.00,VWS V14.00,2013-08-22 21:35:00,
2013-08-22 17:40:00,77.3,69.5,29.92,SW,225,0.0,0.0,77,0.00,,OVC,0.08,0.00,VWS V14.00,2013-08-22 21:40:00,
2013-08-22 17:45:00,77.0,69.6,29.91,West,270,0.0,0.0,78,0.00,,OVC,0.08,0.00,VWS V14.00,2013-08-22 21:45:00,
2013-08-22 17:50:00,76.8,69.4,29.91,West,270,0.0,0.0,78,0.00,,OVC,0.08,0.00,VWS V14.00,2013-08-22 21:50:00,
2013-08-22 17:55:00,76.6,69.6,29.90,West,270,0.0,0.0,79,0.00,,OVC,0.08,0.00,VWS V14.00,2013-08-22 21:55:00,
2013-08-22 18:00:00,76.2,69.2,29.90,West,270,0.0,0.0,79,0.00,,OVC,0.08,0.00,VWS V14.00,2013-08-22 22:00:00,
2013-08-22 18:05:00,75.9,68.9,29.90,NW,315,0.0,0.0,79,0.00,,OVC,0.08,0.00,VWS V14.00,2013-08-22 22:05:00,
2013-08-22 18:10:00,75.7,68.7,29.90,NW,315,0.0,0.0,79,0.00,,OVC,0.08,0.00,VWS V14.00,2013-08-22 22:10:00,
2013-08-22 18:15:00,75.5,68.9,29.89,NW,315,0.0,0.0,80,0.00,,OVC,0.08,0.00,VWS V14.00,2013-08-22 22:15:00,
2013-08-22 18:20:00,75.5,68.9,29.89,WNW,292,0.0,0.0,80,0.00,,OVC,0.08,0.00,VWS V14.00,2013-08-22 22:20:00,
2013-08-22 18:25:00,75.3,68.7,29.89,NW,315,0.0,0.0,80,0.00,,OVC,0.08,0.00,VWS V14.00,2013-08-22 22:25:00,
2013-08-22 18:30:00,75.3,68.7,29.90,WNW,292,0.0,0.0,80,0.00,,OVC,0.08,0.00,VWS V14.00,2013-08-22 22:30:00,
2013-08-22 18:35:00,75.3,68.7,29.90,WNW,292,0.0,0.0,80,0.00,,OVC,0.08,0.00,VWS V14.00,2013-08-22 22:35:00,
2013-08-22 18:40:00,75.5,69.3,29.90,WSW,248,0.0,0.0,81,0.00,,OVC,0.08,0.00,VWS V14.00,2013-08-22 22:40:00,
2013-08-22 18:45:00,75.3,69.1,29.90,WSW,248,0.4,0.4,81,0.00,,OVC,0.08,0.00,VWS V14.00,2013-08-22 22:45:00,
2013-08-22 18:50:00,75.3,69.1,29.90,SW,225,4.0,4.0,81,0.00,,OVC,0.08,0.00,VWS V14.00,2013-08-22 22:50:00,
2013-08-22 18:55:00,75.0,68.8,29.90,West,270,0.0,0.0,81,0.00,,OVC,0.08,0.00,VWS V14.00,2013-08-22 22:55:00,
2013-08-22 19:00:00,75.0,68.8,29.90,SW,225,0.0,0.0,81,0.00,,OVC,0.08,0.00,VWS V14.00,2013-08-22 23:00:00,
2013-08-22 19:05:00,74.8,68.6,29.90,SW,225,1.1,1.1,81,0.00,,OVC,0.08,0.00,VWS V14.00,2013-08-22 23:05:00,
2013-08-22 19:10:00,74.4,68.2,29.90,SSW,202,0.0,0.0,81,0.00,,OVC,0.08,0.00,VWS V14.00,2013-08-22 23:10:00,
2013-08-22 19:15:00,74.3,68.1,29.90,WSW,248,0.0,0.0,81,0.00,,OVC,0.08,0.00,VWS V14.00,2013-08-22 23:15:00,
2013-08-22 19:20:00,74.1,68.3,29.90,WSW,248,0.0,0.0,82,0.00,,OVC,0.08,0.00,VWS V14.00,2013-08-22 23:20:00,
2013-08-22 19:25:00,73.9,68.1,29.90,WSW,248,0.0,0.0,82,0.00,,OVC,0.08,0.00,VWS V14.00,2013-08-22 23:25:00,
2013-08-22 19:30:00,73.7,67.9,29.90,WSW,248,0.0,0.0,82,0.00,,OVC,0.08,0.00,VWS V14.00,2013-08-22 23:30:00,
2013-08-22 19:35:00,73.7,68.2,29.90,WSW,248,0.0,0.0,83,0.00,,OVC,0.08,0.00,VWS V14.00,2013-08-22 23:35:00,
2013-08-22 19:40:00,73.5,68.0,29.90,WSW,248,0.0,0.0,83,0.00,,OVC,0.08,0.00,VWS V14.00,2013-08-22 23:40:00,
2013-08-22 19:45:00,73.5,68.0,29.90,WSW,248,0.0,0.0,83,0.00,,OVC,0.08,0.00,VWS V14.00,2013-08-22 23:45:00,
2013-08-22 19:50:00,73.2,67.7,29.90,WSW,248,0.0,0.0,83,0.00,,OVC,0.08,0.00,VWS V14.00,2013-08-22 23:50:00,
2013-08-22 19:55:00,73.2,68.1,29.90,WSW,248,0.0,0.0,84,0.00,,OVC,0.08,0.00,VWS V14.00,2013-08-22 23:55:00,
2013-08-22 20:00:00,73.0,67.9,29.90,WSW,248,0.0,0.0,84,0.00,,OVC,0.08,0.00,VWS V14.00,2013-08-23 00:00:00,
2013-08-22 20:05:00,72.6,67.5,29.90,WSW,248,0.0,0.0,84,0.00,,OVC,0.08,0.00,VWS V14.00,2013-08-23 00:05:00,
2013-08-22 20:10:00,72.6,67.5,29.90,WSW,248,0.0,0.0,84,0.00,,OVC,0.08,0.00,VWS V14.00,2013-08-23 00:10:00,
2013-08-22 20:15:00,72.5,67.4,29.90,WSW,248,0.6,0.6,84,0.00,,OVC,0.08,0.00,VWS V14.00,2013-08-23 00:15:00,
2013-08-22 20:20:00,72.3,67.5,29.90,WSW,248,0.0,0.0,85,0.00,,OVC,0.08,0.00,VWS V14.00,2013-08-23 00:20:00,
2013-08-22 20:25:00,72.1,67.3,29.91,WSW,248,0.0,0.0,85,0.00,,OVC,0.08,0.00,VWS V14.00,2013-08-23 00:25:00,
2013-08-22 20:30:00,72.1,67.3,29.91,WSW,248,0.0,0.0,85,0.00,,OVC,0.08,0.00,VWS V14.00,2013-08-23 00:30:00,
2013-08-22 20:35:00,72.1,67.7,29.91,WSW,248,0.0,0.0,86,0.00,,OVC,0.08,0.00,VWS V14.00,2013-08-23 00:35:00,
2013-08-22 20:40:00,71.9,67.5,29.91,WSW,248,0.0,0.0,86,0.00,,OVC,0.08,0.00,VWS V14.00,2013-08-23 00:40:00,
2013-08-22 20:45:00,71.7,67.3,29.91,WSW,248,0.0,0.0,86,0.00,,OVC,0.08,0.00,VWS V14.00,2013-08-23 00:45:00,
2013-08-22 20:50:00,71.7,67.3,29.92,WSW,248,0.0,0.0,86,0.00,,OVC,0.08,0.00,VWS V14.00,2013-08-23 00:50:00,
2013-08-22 20:55:00,71.7,67.3,29.92,WSW,248,0.0,0.0,86,0.00,,OVC,0.08,0.00,VWS V14.00,2013-08-23 00:55:00,
2013-08-22 21:00:00,71.7,67.3,29.92,WSW,248,0.0,0.0,86,0.00,,OVC,0.08,0.00,VWS V14.00,2013-08-23 01:00:00,
2013-08-22 21:05:00,71.7,67.6,29.92,WSW,248,0.0,0.0,87,0.00,,OVC,0.08,0.00,VWS V14.00,2013-08-23 01:05:00,
2013-08-22 21:10:00,71.7,67.6,29.92,SW,225,0.0,0.0,87,0.00,,OVC,0.08,0.00,VWS V14.00,2013-08-23 01:10:00,
2013-08-22 21:15:00,71.6,67.5,29.92,SW,225,0.0,0.0,87,0.00,,OVC,0.08,0.00,VWS V14.00,2013-08-23 01:15:00,
2013-08-22 21:20:00,71.4,67.3,29.92,SW,225,0.0,0.0,87,0.00,,OVC,0.08,0.00,VWS V14.00,2013-08-23 01:20:00,
2013-08-22 21:25:00,71.4,67.3,29.92,SW,225,0.0,0.0,87,0.00,,OVC,0.08,0.00,VWS V14.00,2013-08-23 01:25:00,
2013-08-22 21:30:00,71.4,67.3,29.92,SW,225,0.0,0.0,87,0.00,,OVC,0.08,0.00,VWS V14.00,2013-08-23 01:30:00,
2013-08-22 21:35:00,71.4,67.3,29.92,SW,225,0.0,0.0,87,0.00,,OVC,0.08,0.00,VWS V14.00,2013-08-23 01:35:00,
2013-08-22 21:40:00,71.2,67.1,29.92,SW,225,0.0,0.0,87,0.00,,OVC,0.08,0.00,VWS V14.00,2013-08-23 01:40:00,
2013-08-22 21:45:00,71.2,67.1,29.91,SW,225,0.0,0.0,87,0.00,,OVC,0.08,0.00,VWS V14.00,2013-08-23 01:45:00,
2013-08-22 21:50:00,71.2,67.1,29.91,SW,225,0.0,0.0,87,0.00,,OVC,0.08,0.00,VWS V14.00,2013-08-23 01:50:00,
2013-08-22 21:55:00,71.2,67.1,29.91,SW,225,0.0,0.0,87,0.00,,OVC,0.08,0.00,VWS V14.00,2013-08-23 01:55:00,
2013-08-22 22:00:00,71.2,67.5,29.91,SW,225,0.0,0.0,88,0.00,,OVC,0.08,0.00,VWS V14.00,2013-08-23 02:00:00,
2013-08-22 22:04:00,71.0,67.3,29.91,SW,225,0.0,0.0,88,0.00,,OVC,0.08,0.00,VWS V14.00,2013-08-23 02:04:00,
2013-08-22 22:09:00,71.0,67.3,29.90,SW,225,0.0,0.0,88,0.00,,OVC,0.08,0.00,VWS V14.00,2013-08-23 02:09:00,
2013-08-22 22:14:00,70.8,67.1,29.90,SW,225,0.0,0.0,88,0.00,,OVC,0.08,0.00,VWS V14.00,2013-08-23 02:14:00,
2013-08-22 22:19:00,70.8,67.1,29.90,SW,225,0.0,0.0,88,0.00,,OVC,0.08,0.00,VWS V14.00,2013-08-23 02:19:00,
2013-08-22 22:24:00,70.8,67.1,29.90,WSW,248,0.0,0.0,88,0.00,,OVC,0.08,0.00,VWS V14.00,2013-08-23 02:24:00,
2013-08-22 22:29:00,70.8,67.1,29.90,SW,225,0.0,0.0,88,0.00,,OVC,0.08,0.00,VWS V14.00,2013-08-23 02:29:00,
2013-08-22 22:34:00,70.8,67.1,29.90,WSW,248,0.0,0.0,88,0.00,,OVC,0.08,0.00,VWS V14.00,2013-08-23 02:34:00,
2013-08-22 22:39:00,70.8,67.1,29.90,SW,225,0.0,0.0,88,0.00,,OVC,0.08,0.00,VWS V14.00,2013-08-23 02:39:00,
2013-08-22 22:44:00,70.8,67.1,29.90,SW,225,1.1,1.1,88,0.00,,OVC,0.08,0.00,VWS V14.00,2013-08-23 02:44:00,
2013-08-22 22:49:00,70.8,67.1,29.90,WSW,248,0.0,0.0,88,0.00,,OVC,0.08,0.00,VWS V14.00,2013-08-23 02:49:00,
2013-08-22 22:54:00,70.8,67.1,29.90,WSW,248,0.0,0.0,88,0.00,,OVC,0.08,0.00,VWS V14.00,2013-08-23 02:54:00,
2013-08-22 22:59:00,70.7,67.0,29.90,WSW,248,0.0,0.0,88,0.00,,OVC,0.08,0.00,VWS V14.00,2013-08-23 02:59:00,
2013-08-22 23:04:00,70.7,67.0,29.89,West,270,0.0,0.0,88,0.00,,OVC,0.08,0.00,VWS V14.00,2013-08-23 03:04:00,
2013-08-22 23:09:00,70.7,67.0,29.89,WSW,248,0.0,0.0,88,0.00,,OVC,0.08,0.00,VWS V14.00,2013-08-23 03:09:00,
2013-08-22 23:14:00,70.7,67.0,29.90,WSW,248,0.0,0.0,88,0.00,,OVC,0.08,0.00,VWS V14.00,2013-08-23 03:14:00,
2013-08-22 23:19:00,70.7,67.0,29.89,SW,225,0.0,0.0,88,0.00,,OVC,0.08,0.00,VWS V14.00,2013-08-23 03:19:00,
2013-08-22 23:24:00,70.7,67.0,29.89,SW,225,0.8,0.8,88,0.00,,OVC,0.08,0.00,VWS V14.00,2013-08-23 03:24:00,
2013-08-22 23:29:00,70.7,67.0,29.89,SW,225,0.0,0.0,88,0.00,,OVC,0.08,0.00,VWS V14.00,2013-08-23 03:29:00,
2013-08-22 23:34:00,70.7,67.0,29.89,SW,225,0.0,0.0,88,0.00,,OVC,0.08,0.00,VWS V14.00,2013-08-23 03:34:00,
2013-08-22 23:39:00,70.7,67.0,29.89,WSW,248,0.0,0.0,88,0.00,,OVC,0.08,0.00,VWS V14.00,2013-08-23 03:39:00,
2013-08-22 23:44:00,70.5,66.8,29.89,SW,225,4.0,4.0,88,0.00,,OVC,0.08,0.00,VWS V14.00,2013-08-23 03:44:00,
2013-08-22 23:49:00,70.5,67.1,29.89,SW,225,0.2,0.2,89,0.00,,OVC,0.08,0.00,VWS V14.00,2013-08-23 03:49:00,
2013-08-22 23:54:00,70.5,66.8,29.89,WSW,248,2.0,2.0,88,0.00,,OVC,0.08,0.00,VWS V14.00,2013-08-23 03:54:00,
2013-08-22 23:59:00,70.5,67.1,29.89,SW,225,2.2,2.2,89,0.00,,OVC,0.00,0.00,VWS V14.00,2013-08-23 03:59:00,